User: anonymous   Login
Location: Taipo
(41.0000°S, 175.9500°E)
Time: 09:49:22
(UTC+00:00)
Language:

Meteor 1-4 Rocket - Orbit

View from above orbital plane
View from above orbital plane
View from above satellite
View from above satellite

Ground track
Ground track

The orbit data is extracted from the following two-line orbital elements,

1 04394U 70037B   24169.85685630  .00051069  00000-0  48414-3 0  9995
2 04394  81.2282 223.7627 0015329 306.6359  53.3487 15.66559001957342
Epoch (UTC): 17 June 2024 20:33:52
Eccentricity: 0.0015329
inclination: 81.2282°
perigee height: 358 km
apogee height: 379 km
right ascension of ascending node: 223.7627°
argument of perigee: 306.6359°
revolutions per day: 15.66559001
mean anomaly at epoch: 53.3487°
orbit number at epoch: 95734

The dashed part of the orbit path shows where the satellite is in the earth's shadow,  

DLR